Time,TemperatureF,DewpointF,PressureIn,WindDirection,WindDirectionDegrees,WindSpeedMPH,WindSpeedGustMPH,Humidity,HourlyPrecipIn,Conditions,Clouds,dailyrainin,SoftwareType,DateUTC
2013-03-05 00:00:00,25.3,15.3,30.17,ESE,118,4.0,6.0,65,0.00,,,0.00,meteohub,2013-03-05 05:00:00,
2013-03-05 00:01:00,25.3,15.3,30.17,ESE,116,4.0,6.0,65,0.00,,,0.00,meteohub,2013-03-05 05:01:00,
2013-03-05 00:06:00,25.3,15.3,30.17,ESE,102,6.0,6.0,65,0.00,,,0.00,meteohub,2013-03-05 05:06:00,
2013-03-05 00:11:00,25.3,15.3,30.17,ESE,107,5.0,7.0,65,0.00,,,0.00,meteohub,2013-03-05 05:11:00,
2013-03-05 00:16:00,25.2,15.4,30.16,ESE,113,3.0,7.0,66,0.00,,,0.00,meteohub,2013-03-05 05:16:00,
2013-03-05 00:21:00,25.0,15.3,30.16,ESE,121,5.0,7.0,66,0.00,,,0.00,meteohub,2013-03-05 05:21:00,
2013-03-05 00:26:00,25.0,15.6,30.16,ESE,113,7.0,7.0,67,0.00,,,0.00,meteohub,2013-03-05 05:26:00,
2013-03-05 00:31:00,24.8,15.4,30.16,ESE,102,7.0,7.0,67,0.00,,,0.00,meteohub,2013-03-05 05:31:00,
2013-03-05 00:36:00,24.8,15.4,30.16,ESE,106,4.0,8.0,67,0.00,,,0.00,meteohub,2013-03-05 05:36:00,
2013-03-05 00:41:00,24.6,15.3,30.16,East,95,4.0,8.0,67,0.00,,,0.00,meteohub,2013-03-05 05:41:00,
2013-03-05 00:46:00,24.6,15.3,30.16,ESE,102,4.0,7.0,67,0.00,,,0.00,meteohub,2013-03-05 05:46:00,
2013-03-05 00:51:00,24.4,15.4,30.16,ESE,116,4.0,7.0,68,0.00,,,0.00,meteohub,2013-03-05 05:51:00,
2013-03-05 00:56:00,24.3,15.3,30.15,East,98,4.0,7.0,68,0.00,,,0.00,meteohub,2013-03-05 05:56:00,
2013-03-05 01:01:00,24.3,15.3,30.15,East,95,4.0,6.0,68,0.00,,,0.00,meteohub,2013-03-05 06:01:00,
2013-03-05 01:06:00,24.3,15.3,30.15,East,79,3.0,6.0,68,0.00,,,0.00,meteohub,2013-03-05 06:06:00,
2013-03-05 01:11:00,24.3,15.3,30.15,East,87,6.0,6.0,68,0.00,,,0.00,meteohub,2013-03-05 06:11:00,
2013-03-05 01:17:00,24.3,15.3,30.15,East,101,3.0,7.0,68,0.00,,,0.00,meteohub,2013-03-05 06:17:00,
2013-03-05 01:22:00,24.3,15.3,30.15,ESE,105,4.0,7.0,68,0.00,,,0.00,meteohub,2013-03-05 06:22:00,
2013-03-05 01:27:00,24.3,15.3,30.14,East,98,5.0,7.0,68,0.00,,,0.00,meteohub,2013-03-05 06:27:00,
2013-03-05 01:32:00,24.3,15.3,30.14,East,98,3.0,7.0,68,0.00,,,0.00,meteohub,2013-03-05 06:32:00,
2013-03-05 01:37:00,24.1,15.1,30.14,ESE,105,3.0,7.0,68,0.00,,,0.00,meteohub,2013-03-05 06:37:00,
2013-03-05 01:42:00,24.1,14.7,30.14,ESE,113,3.0,7.0,67,0.00,,,0.00,meteohub,2013-03-05 06:42:00,
2013-03-05 01:47:00,24.1,14.7,30.14,ESE,118,5.0,7.0,67,0.00,,,0.00,meteohub,2013-03-05 06:47:00,
2013-03-05 01:52:00,24.1,14.7,30.14,East,90,7.0,7.0,67,0.00,,,0.00,meteohub,2013-03-05 06:52:00,
2013-03-05 01:57:00,24.1,14.7,30.14,ESE,103,5.0,7.0,67,0.00,,,0.00,meteohub,2013-03-05 06:57:00,
2013-03-05 02:02:00,23.9,14.5,30.14,East,101,5.0,7.0,67,0.00,,,0.00,meteohub,2013-03-05 07:02:00,
2013-03-05 02:07:00,23.7,14.7,30.14,ESE,113,3.0,9.0,68,0.00,,,0.00,meteohub,2013-03-05 07:07:00,
2013-03-05 02:12:00,23.5,14.5,30.14,East,79,5.0,9.0,68,0.00,,,0.00,meteohub,2013-03-05 07:12:00,
2013-03-05 02:17:00,23.5,14.5,30.14,East,90,5.0,9.0,68,0.00,,,0.00,meteohub,2013-03-05 07:17:00,
2013-03-05 02:22:00,23.5,14.5,30.14,East,98,5.0,6.0,68,0.00,,,0.00,meteohub,2013-03-05 07:22:00,
2013-03-05 02:27:00,23.5,14.5,30.13,ESE,108,3.0,8.0,68,0.00,,,0.00,meteohub,2013-03-05 07:27:00,
2013-03-05 02:32:00,23.5,14.5,30.13,East,91,4.0,8.0,68,0.00,,,0.00,meteohub,2013-03-05 07:32:00,
2013-03-05 02:37:00,23.5,14.5,30.13,ESE,110,7.0,8.0,68,0.00,,,0.00,meteohub,2013-03-05 07:37:00,
2013-03-05 02:42:00,23.7,14.7,30.13,East,95,7.0,8.0,68,0.00,,,0.00,meteohub,2013-03-05 07:42:00,
2013-03-05 02:47:00,23.7,14.7,30.13,East,91,5.0,9.0,68,0.00,,,0.00,meteohub,2013-03-05 07:47:00,
2013-03-05 02:52:00,23.5,14.5,30.12,East,90,4.0,9.0,68,0.00,,,0.00,meteohub,2013-03-05 07:52:00,
2013-03-05 02:57:00,23.4,14.7,30.12,East,94,3.0,9.0,69,0.00,,,0.00,meteohub,2013-03-05 07:57:00,
2013-03-05 03:02:00,23.4,14.7,30.12,ESE,107,4.0,8.0,69,0.00,,,0.00,meteohub,2013-03-05 08:02:00,
2013-03-05 03:08:00,23.2,14.9,30.12,East,81,6.0,7.0,70,0.00,,,0.00,meteohub,2013-03-05 08:08:00,
2013-03-05 03:13:00,22.8,14.5,30.12,East,89,4.0,7.0,70,0.00,,,0.00,meteohub,2013-03-05 08:13:00,
2013-03-05 03:18:00,22.8,14.5,30.12,East,89,5.0,7.0,70,0.00,,,0.00,meteohub,2013-03-05 08:18:00,
2013-03-05 03:23:00,22.6,14.7,30.11,ESE,105,6.0,8.0,71,0.00,,,0.00,meteohub,2013-03-05 08:23:00,
2013-03-05 03:28:00,22.5,14.5,30.11,East,79,5.0,8.0,71,0.00,,,0.00,meteohub,2013-03-05 08:28:00,
2013-03-05 03:33:00,22.5,14.5,30.11,East,96,4.0,8.0,71,0.00,,,0.00,meteohub,2013-03-05 08:33:00,
2013-03-05 03:38:00,22.3,14.7,30.11,East,96,6.0,8.0,72,0.00,,,0.00,meteohub,2013-03-05 08:38:00,
2013-03-05 03:43:00,22.3,14.7,30.10,East,94,4.0,8.0,72,0.00,,,0.00,meteohub,2013-03-05 08:43:00,
2013-03-05 03:48:00,22.1,14.7,30.10,East,98,5.0,8.0,73,0.00,,,0.00,meteohub,2013-03-05 08:48:00,
2013-03-05 03:53:00,21.9,14.5,30.09,ENE,70,4.0,8.0,73,0.00,,,0.00,meteohub,2013-03-05 08:53:00,
2013-03-05 03:58:00,22.1,14.7,30.09,East,93,6.0,8.0,73,0.00,,,0.00,meteohub,2013-03-05 08:58:00,
2013-03-05 04:03:00,22.1,14.7,30.09,East,94,5.0,7.0,73,0.00,,,0.00,meteohub,2013-03-05 09:03:00,
2013-03-05 04:08:00,22.1,14.7,30.09,SE,124,6.0,8.0,73,0.00,,,0.00,meteohub,2013-03-05 09:08:00,
2013-03-05 04:13:00,22.1,14.7,30.09,East,85,6.0,11.0,73,0.00,,,0.00,meteohub,2013-03-05 09:13:00,
2013-03-05 04:18:00,21.9,14.5,30.09,ENE,71,5.0,11.0,73,0.00,,,0.00,meteohub,2013-03-05 09:18:00,
2013-03-05 04:23:00,21.9,14.9,30.09,East,84,5.0,11.0,74,0.00,,,0.00,meteohub,2013-03-05 09:23:00,
2013-03-05 04:28:00,21.9,14.9,30.09,East,94,6.0,11.0,74,0.00,,,0.00,meteohub,2013-03-05 09:28:00,
2013-03-05 04:33:00,21.7,14.7,30.09,ENE,71,7.0,12.0,74,0.00,,,0.00,meteohub,2013-03-05 09:33:00,
2013-03-05 04:39:00,21.7,14.7,30.09,East,90,6.0,12.0,74,0.00,,,0.00,meteohub,2013-03-05 09:39:00,
2013-03-05 04:44:00,21.6,14.9,30.08,East,92,8.0,12.0,75,0.00,,,0.00,meteohub,2013-03-05 09:44:00,
2013-03-05 04:49:00,21.6,14.9,30.09,ENE,76,6.0,11.0,75,0.00,,,0.00,meteohub,2013-03-05 09:49:00,
2013-03-05 04:54:00,21.6,14.9,30.08,East,79,6.0,11.0,75,0.00,,,0.00,meteohub,2013-03-05 09:54:00,
2013-03-05 04:59:00,21.6,14.9,30.09,East,88,6.0,11.0,75,0.00,,,0.00,meteohub,2013-03-05 09:59:00,
2013-03-05 05:04:00,21.6,14.9,30.08,ESE,110,5.0,11.0,75,0.00,,,0.00,meteohub,2013-03-05 10:04:00,
2013-03-05 05:09:00,21.6,15.3,30.09,East,98,8.0,11.0,76,0.00,,,0.00,meteohub,2013-03-05 10:09:00,
2013-03-05 05:14:00,21.6,15.3,30.09,East,91,3.0,14.0,76,0.00,,,0.00,meteohub,2013-03-05 10:14:00,
2013-03-05 05:19:00,21.4,15.1,30.09,East,87,2.0,14.0,76,0.00,,,0.00,meteohub,2013-03-05 10:19:00,
2013-03-05 05:24:00,21.4,15.1,30.09,ESE,105,4.0,10.0,76,0.00,,,0.00,meteohub,2013-03-05 10:24:00,
2013-03-05 05:29:00,21.4,15.1,30.09,East,95,3.0,10.0,76,0.00,,,0.00,meteohub,2013-03-05 10:29:00,
2013-03-05 05:34:00,21.4,15.1,30.09,East,88,5.0,9.0,76,0.00,,,0.00,meteohub,2013-03-05 10:34:00,
2013-03-05 05:39:00,21.4,15.1,30.09,East,83,5.0,9.0,76,0.00,,,0.00,meteohub,2013-03-05 10:39:00,
2013-03-05 05:44:00,21.2,14.9,30.09,East,88,6.0,10.0,76,0.00,,,0.00,meteohub,2013-03-05 10:44:00,
2013-03-05 05:49:00,21.2,14.9,30.09,East,89,5.0,10.0,76,0.00,,,0.00,meteohub,2013-03-05 10:49:00,
2013-03-05 05:54:00,21.2,14.9,30.09,East,89,5.0,11.0,76,0.00,,,0.00,meteohub,2013-03-05 10:54:00,
2013-03-05 05:59:00,21.0,14.9,30.09,East,101,10.0,11.0,77,0.00,,,0.00,meteohub,2013-03-05 10:59:00,
2013-03-05 06:04:00,21.0,14.9,30.09,East,79,6.0,12.0,77,0.00,,,0.00,meteohub,2013-03-05 11:04:00,
2013-03-05 06:09:00,21.0,14.9,30.09,East,94,5.0,12.0,77,0.00,,,0.00,meteohub,2013-03-05 11:09:00,
2013-03-05 06:14:00,21.0,14.9,30.09,East,92,4.0,13.0,77,0.00,,,0.00,meteohub,2013-03-05 11:14:00,
2013-03-05 06:19:00,21.0,14.9,30.09,East,99,6.0,13.0,77,0.00,,,0.00,meteohub,2013-03-05 11:19:00,
2013-03-05 06:24:00,21.2,15.1,30.09,East,83,8.0,13.0,77,0.00,,,0.00,meteohub,2013-03-05 11:24:00,
2013-03-05 06:29:00,21.4,15.1,30.09,East,86,14.0,14.0,76,0.00,,,0.00,meteohub,2013-03-05 11:29:00,
2013-03-05 06:35:00,21.6,15.3,30.09,East,80,8.0,13.0,76,0.00,,,0.00,meteohub,2013-03-05 11:35:00,
2013-03-05 06:40:00,21.6,15.3,30.09,East,82,5.0,14.0,76,0.00,,,0.00,meteohub,2013-03-05 11:40:00,
2013-03-05 06:45:00,21.7,15.3,30.09,ENE,77,7.0,14.0,76,0.00,,,0.00,meteohub,2013-03-05 11:45:00,
2013-03-05 06:50:00,21.7,15.3,30.09,ENE,77,6.0,13.0,76,0.00,,,0.00,meteohub,2013-03-05 11:50:00,
2013-03-05 06:55:00,21.7,15.3,30.08,East,101,9.0,13.0,76,0.00,,,0.00,meteohub,2013-03-05 11:55:00,
2013-03-05 07:00:00,21.6,15.3,30.08,East,83,9.0,13.0,76,0.00,,,0.00,meteohub,2013-03-05 12:00:00,
2013-03-05 07:05:00,21.4,15.1,30.08,East,96,8.0,11.0,76,0.00,,,0.00,meteohub,2013-03-05 12:05:00,
2013-03-05 07:10:00,21.4,15.1,30.07,East,79,7.0,11.0,76,0.00,,,0.00,meteohub,2013-03-05 12:10:00,
2013-03-05 07:15:00,21.6,15.3,30.07,ENE,57,6.0,11.0,76,0.00,,,0.00,meteohub,2013-03-05 12:15:00,
2013-03-05 07:20:00,21.6,15.3,30.07,East,79,7.0,13.0,76,0.00,,,0.00,meteohub,2013-03-05 12:20:00,
2013-03-05 07:25:00,21.6,15.3,30.07,East,84,8.0,13.0,76,0.00,,,0.00,meteohub,2013-03-05 12:25:00,
2013-03-05 07:30:00,21.7,15.3,30.07,East,90,6.0,13.0,76,0.00,,,0.00,meteohub,2013-03-05 12:30:00,
2013-03-05 07:35:00,21.9,15.4,30.07,East,95,7.0,13.0,76,0.00,,,0.00,meteohub,2013-03-05 12:35:00,
2013-03-05 07:40:00,22.3,15.8,30.07,East,96,7.0,12.0,76,0.00,,,0.00,meteohub,2013-03-05 12:40:00,
2013-03-05 07:45:00,22.5,16.0,30.07,East,85,6.0,12.0,76,0.00,,,0.00,meteohub,2013-03-05 12:45:00,
2013-03-05 07:50:00,22.6,16.2,30.07,ENE,63,6.0,12.0,76,0.00,,,0.00,meteohub,2013-03-05 12:50:00,
2013-03-05 07:55:00,22.8,16.3,30.07,East,84,6.0,16.0,76,0.00,,,0.00,meteohub,2013-03-05 12:55:00,
2013-03-05 08:00:00,23.2,16.7,30.07,East,101,4.0,16.0,76,0.00,,,0.00,meteohub,2013-03-05 13:00:00,
2013-03-05 08:05:00,23.2,16.7,30.07,East,89,9.0,16.0,76,0.00,,,0.00,meteohub,2013-03-05 13:05:00,
2013-03-05 08:10:00,23.4,16.9,30.07,ENE,77,8.0,16.0,76,0.00,,,0.00,meteohub,2013-03-05 13:10:00,
2013-03-05 08:15:00,23.5,17.1,30.07,ENE,59,9.0,14.0,76,0.00,,,0.00,meteohub,2013-03-05 13:15:00,
2013-03-05 08:21:00,23.9,17.8,30.07,ENE,68,14.0,14.0,77,0.00,,,0.00,meteohub,2013-03-05 13:21:00,
2013-03-05 08:26:00,24.1,18.0,30.07,East,79,12.0,18.0,77,0.00,,,0.00,meteohub,2013-03-05 13:26:00,
2013-03-05 08:31:00,24.1,18.0,30.07,East,96,9.0,18.0,77,0.00,,,0.00,meteohub,2013-03-05 13:31:00,
2013-03-05 08:36:00,24.3,18.1,30.06,East,89,9.0,18.0,77,0.00,,,0.00,meteohub,2013-03-05 13:36:00,
2013-03-05 08:41:00,24.3,18.3,30.06,ENE,63,14.0,18.0,78,0.00,,,0.00,meteohub,2013-03-05 13:41:00,
2013-03-05 08:46:00,24.4,18.3,30.06,ENE,77,13.0,19.0,77,0.00,,,0.00,meteohub,2013-03-05 13:46:00,
2013-03-05 08:51:00,24.4,18.3,30.07,ENE,70,11.0,19.0,77,0.00,,,0.00,meteohub,2013-03-05 13:51:00,
2013-03-05 08:56:00,24.4,18.3,30.07,ENE,71,9.0,19.0,77,0.00,,,0.00,meteohub,2013-03-05 13:56:00,
2013-03-05 09:01:00,24.6,18.5,30.07,East,79,13.0,19.0,77,0.00,,,0.00,meteohub,2013-03-05 14:01:00,
2013-03-05 09:06:00,24.4,18.3,30.06,East,80,8.0,17.0,77,0.00,,,0.00,meteohub,2013-03-05 14:06:00,
2013-03-05 09:11:00,24.6,18.5,30.06,ENE,68,4.0,17.0,77,0.00,,,0.00,meteohub,2013-03-05 14:11:00,
2013-03-05 09:16:00,24.8,18.7,30.06,East,96,7.0,17.0,77,0.00,,,0.00,meteohub,2013-03-05 14:16:00,
2013-03-05 09:21:00,24.8,18.7,30.06,East,79,9.0,17.0,77,0.00,,,0.00,meteohub,2013-03-05 14:21:00,
2013-03-05 09:26:00,25.0,18.5,30.06,ENE,63,9.0,18.0,76,0.00,,,0.00,meteohub,2013-03-05 14:26:00,
2013-03-05 09:31:00,25.0,18.9,30.06,ESE,116,12.0,18.0,77,0.00,,,0.00,meteohub,2013-03-05 14:31:00,
2013-03-05 09:36:00,25.2,19.0,30.05,East,79,6.0,19.0,77,0.00,,,0.00,meteohub,2013-03-05 14:36:00,
2013-03-05 09:41:00,25.3,19.2,30.05,ENE,68,6.0,19.0,77,0.00,,,0.00,meteohub,2013-03-05 14:41:00,
2013-03-05 09:46:00,25.3,19.2,30.05,ENE,77,12.0,19.0,77,0.00,,,0.00,meteohub,2013-03-05 14:46:00,
2013-03-05 09:51:00,25.0,18.9,30.06,East,93,12.0,19.0,77,0.00,,,0.00,meteohub,2013-03-05 14:51:00,
2013-03-05 09:56:00,25.0,19.0,30.05,East,82,18.0,19.0,78,0.00,,,0.00,meteohub,2013-03-05 14:56:00,
2013-03-05 10:01:00,24.8,18.9,30.05,East,95,12.0,19.0,78,0.00,,,0.00,meteohub,2013-03-05 15:01:00,
2013-03-05 10:06:00,24.6,18.7,30.05,East,82,12.0,19.0,78,0.00,,,0.00,meteohub,2013-03-05 15:06:00,
2013-03-05 10:11:00,25.2,19.6,30.04,NE,49,19.0,19.0,79,0.00,,,0.00,meteohub,2013-03-05 15:11:00,
2013-03-05 10:16:00,25.2,19.2,30.04,ENE,60,11.0,19.0,78,0.00,,,0.00,meteohub,2013-03-05 15:16:00,
2013-03-05 10:22:00,25.3,19.4,30.03,East,95,11.0,19.0,78,0.00,,,0.00,meteohub,2013-03-05 15:22:00,
2013-03-05 10:27:00,25.3,19.8,30.03,ESE,107,17.0,19.0,79,0.00,,,0.00,meteohub,2013-03-05 15:27:00,
2013-03-05 10:32:00,25.2,19.2,30.03,ENE,68,6.0,19.0,78,0.00,,,0.00,meteohub,2013-03-05 15:32:00,
2013-03-05 10:37:00,25.2,19.2,30.03,ENE,70,11.0,20.0,78,0.00,,,0.00,meteohub,2013-03-05 15:37:00,
2013-03-05 10:42:00,25.2,19.6,30.03,East,101,12.0,20.0,79,0.00,,,0.00,meteohub,2013-03-05 15:42:00,
2013-03-05 10:47:00,25.3,19.8,30.03,East,100,10.0,20.0,79,0.00,,,0.00,meteohub,2013-03-05 15:47:00,
2013-03-05 10:52:00,25.5,19.9,30.03,ESE,115,14.0,19.0,79,0.00,,,0.00,meteohub,2013-03-05 15:52:00,
2013-03-05 10:57:00,25.7,19.8,30.03,NE,50,9.0,19.0,78,0.00,,,0.00,meteohub,2013-03-05 15:57:00,
2013-03-05 11:02:00,25.7,19.8,30.03,East,89,14.0,18.0,78,0.00,,,0.00,meteohub,2013-03-05 16:02:00,
2013-03-05 11:07:00,26.1,20.5,30.02,ENE,71,13.0,18.0,79,0.00,,,0.00,meteohub,2013-03-05 16:07:00,
2013-03-05 11:12:00,26.1,20.1,30.02,East,79,14.0,21.0,78,0.00,,,0.00,meteohub,2013-03-05 16:12:00,
2013-03-05 11:17:00,25.9,19.9,30.02,East,97,12.0,21.0,78,0.00,,,0.00,meteohub,2013-03-05 16:17:00,
2013-03-05 11:22:00,25.9,20.3,30.01,East,91,11.0,21.0,79,0.00,,,0.00,meteohub,2013-03-05 16:22:00,
2013-03-05 11:27:00,25.9,20.3,30.01,ENE,71,17.0,21.0,79,0.00,,,0.00,meteohub,2013-03-05 16:27:00,
2013-03-05 11:32:00,26.1,20.5,30.01,ENE,72,13.0,22.0,79,0.00,,,0.00,meteohub,2013-03-05 16:32:00,
2013-03-05 11:37:00,26.2,20.7,30.01,East,84,9.0,22.0,79,0.00,,,0.00,meteohub,2013-03-05 16:37:00,
2013-03-05 11:42:00,26.6,20.7,30.01,ENE,57,7.0,19.0,78,0.00,,,0.00,meteohub,2013-03-05 16:42:00,
2013-03-05 11:47:00,26.4,20.1,30.01,East,79,10.0,18.0,77,0.00,,,0.00,meteohub,2013-03-05 16:47:00,
2013-03-05 11:53:00,26.8,20.5,30.01,East,101,7.0,19.0,77,0.00,,,0.00,meteohub,2013-03-05 16:53:00,
2013-03-05 11:58:00,27.1,20.8,30.01,ENE,65,9.0,19.0,77,0.00,,,0.00,meteohub,2013-03-05 16:58:00,
2013-03-05 12:03:00,27.7,21.4,30.01,East,96,3.0,16.0,77,0.00,,,0.00,meteohub,2013-03-05 17:03:00,
2013-03-05 12:08:00,28.0,21.2,30.01,East,84,6.0,15.0,75,0.00,,,0.00,meteohub,2013-03-05 17:08:00,
2013-03-05 12:13:00,28.0,21.2,30.00,East,84,5.0,18.0,75,0.00,,,0.00,meteohub,2013-03-05 17:13:00,
2013-03-05 12:18:00,28.2,21.4,30.00,East,96,11.0,18.0,75,0.00,,,0.00,meteohub,2013-03-05 17:18:00,
2013-03-05 12:23:00,28.0,21.2,30.00,NE,37,10.0,18.0,75,0.00,,,0.00,meteohub,2013-03-05 17:23:00,
2013-03-05 12:28:00,28.2,21.4,30.00,East,89,6.0,20.0,75,0.00,,,0.00,meteohub,2013-03-05 17:28:00,
2013-03-05 12:33:00,28.2,21.4,30.00,ENE,77,12.0,20.0,75,0.00,,,0.00,meteohub,2013-03-05 17:33:00,
2013-03-05 12:38:00,28.6,21.7,30.00,East,96,17.0,20.0,75,0.00,,,0.00,meteohub,2013-03-05 17:38:00,
2013-03-05 12:43:00,28.8,21.6,29.99,ENE,64,12.0,20.0,74,0.00,,,0.00,meteohub,2013-03-05 17:43:00,
2013-03-05 12:48:00,28.9,21.7,29.99,ESE,107,10.0,20.0,74,0.00,,,0.00,meteohub,2013-03-05 17:48:00,
2013-03-05 12:53:00,29.3,22.1,29.99,ENE,71,10.0,20.0,74,0.00,,,0.00,meteohub,2013-03-05 17:53:00,
2013-03-05 12:58:00,29.8,22.8,29.98,East,81,6.0,20.0,75,0.00,,,0.00,meteohub,2013-03-05 17:58:00,
2013-03-05 13:03:00,30.2,23.0,29.98,East,86,8.0,17.0,74,0.00,,,0.00,meteohub,2013-03-05 18:03:00,
2013-03-05 13:08:00,30.4,22.5,29.98,ENE,78,11.0,15.0,72,0.00,,,0.00,meteohub,2013-03-05 18:08:00,
2013-03-05 13:13:00,30.6,23.0,29.97,ENE,74,5.0,19.0,73,0.00,,,0.00,meteohub,2013-03-05 18:13:00,
2013-03-05 13:18:00,30.9,23.4,29.96,ENE,70,6.0,19.0,73,0.00,,,0.00,meteohub,2013-03-05 18:18:00,
2013-03-05 13:23:00,31.3,23.7,29.96,NNE,32,6.0,19.0,73,0.00,,,0.00,meteohub,2013-03-05 18:23:00,
2013-03-05 13:28:00,31.1,23.5,29.96,ESE,105,11.0,15.0,73,0.00,,,0.00,meteohub,2013-03-05 18:28:00,
2013-03-05 13:33:00,30.9,23.5,29.96,ESE,119,9.0,16.0,74,0.00,,,0.00,meteohub,2013-03-05 18:33:00,
2013-03-05 13:38:00,30.9,23.4,29.95,ENE,63,8.0,17.0,73,0.00,,,0.00,meteohub,2013-03-05 18:38:00,
2013-03-05 13:43:00,30.9,23.5,29.95,NNE,29,11.0,17.0,74,0.00,,,0.00,meteohub,2013-03-05 18:43:00,
2013-03-05 13:49:00,31.1,23.7,29.95,ENE,68,8.0,17.0,74,0.00,,,0.00,meteohub,2013-03-05 18:49:00,
2013-03-05 13:54:00,31.3,23.9,29.94,NE,43,12.0,17.0,74,0.00,,,0.00,meteohub,2013-03-05 18:54:00,
2013-03-05 13:59:00,31.1,23.7,29.94,NE,50,10.0,16.0,74,0.00,,,0.00,meteohub,2013-03-05 18:59:00,
2013-03-05 14:04:00,31.1,24.1,29.94,East,94,7.0,19.0,75,0.00,,,0.00,meteohub,2013-03-05 19:04:00,
2013-03-05 14:09:00,31.1,24.1,29.93,NE,55,8.0,19.0,75,0.00,,,0.00,meteohub,2013-03-05 19:09:00,
2013-03-05 14:14:00,30.9,23.9,29.93,NE,37,4.0,17.0,75,0.00,,,0.00,meteohub,2013-03-05 19:14:00,
2013-03-05 14:19:00,31.3,24.3,29.92,ENE,57,4.0,17.0,75,0.00,,,0.00,meteohub,2013-03-05 19:19:00,
2013-03-05 14:24:00,31.3,23.9,29.92,East,92,10.0,17.0,74,0.00,,,0.00,meteohub,2013-03-05 19:24:00,
2013-03-05 14:29:00,31.3,24.3,29.92,East,100,8.0,19.0,75,0.00,,,0.00,meteohub,2013-03-05 19:29:00,
2013-03-05 14:34:00,31.3,23.9,29.92,ENE,62,15.0,19.0,74,0.00,,,0.00,meteohub,2013-03-05 19:34:00,
2013-03-05 14:39:00,31.3,23.9,29.91,ENE,76,13.0,19.0,74,0.00,,,0.00,meteohub,2013-03-05 19:39:00,
2013-03-05 14:44:00,31.3,23.9,29.91,East,86,11.0,18.0,74,0.00,,,0.00,meteohub,2013-03-05 19:44:00,
2013-03-05 14:49:00,31.3,23.9,29.91,NNE,29,8.0,18.0,74,0.00,,,0.00,meteohub,2013-03-05 19:49:00,
2013-03-05 14:54:00,31.5,24.1,29.91,NE,35,14.0,18.0,74,0.00,,,0.00,meteohub,2013-03-05 19:54:00,
2013-03-05 14:59:00,31.6,23.9,29.90,ENE,57,8.0,18.0,73,0.00,,,0.00,meteohub,2013-03-05 19:59:00,
2013-03-05 15:04:00,31.6,23.7,29.90,ENE,60,10.0,17.0,72,0.00,,,0.00,meteohub,2013-03-05 20:04:00,
2013-03-05 15:09:00,31.6,23.9,29.90,ENE,57,10.0,20.0,73,0.00,,,0.00,meteohub,2013-03-05 20:09:00,
2013-03-05 15:14:00,31.8,24.1,29.90,East,89,13.0,20.0,73,0.00,,,0.00,meteohub,2013-03-05 20:14:00,
2013-03-05 15:19:00,31.8,24.1,29.90,East,79,8.0,20.0,73,0.00,,,0.00,meteohub,2013-03-05 20:19:00,
2013-03-05 15:24:00,31.8,23.9,29.90,NE,37,12.0,22.0,72,0.00,,,0.00,meteohub,2013-03-05 20:24:00,
2013-03-05 15:29:00,32.0,24.3,29.90,East,85,11.0,22.0,73,0.00,,,0.00,meteohub,2013-03-05 20:29:00,
2013-03-05 15:34:00,32.0,24.1,29.89,East,93,8.0,22.0,72,0.00,,,0.00,meteohub,2013-03-05 20:34:00,
2013-03-05 15:40:00,32.2,24.3,29.90,NE,51,13.0,22.0,72,0.00,,,0.00,meteohub,2013-03-05 20:40:00,
2013-03-05 15:45:00,32.2,24.3,29.90,ENE,77,4.0,22.0,72,0.00,,,0.00,meteohub,2013-03-05 20:45:00,
2013-03-05 15:50:00,32.2,23.9,29.90,NE,37,8.0,18.0,71,0.00,,,0.00,meteohub,2013-03-05 20:50:00,
2013-03-05 15:55:00,32.4,24.1,29.90,ENE,68,6.0,18.0,71,0.00,,,0.00,meteohub,2013-03-05 20:55:00,
2013-03-05 16:00:00,32.5,24.3,29.89,ENE,71,7.0,18.0,71,0.00,,,0.00,meteohub,2013-03-05 21:00:00,
2013-03-05 16:05:00,32.7,24.6,29.89,NE,51,11.0,18.0,72,0.00,,,0.00,meteohub,2013-03-05 21:05:00,
2013-03-05 16:10:00,32.7,24.4,29.89,NE,43,5.0,16.0,71,0.00,,,0.00,meteohub,2013-03-05 21:10:00,
2013-03-05 16:15:00,32.7,24.4,29.89,East,81,8.0,16.0,71,0.00,,,0.00,meteohub,2013-03-05 21:15:00,
2013-03-05 16:20:00,33.1,24.4,29.89,East,86,10.0,15.0,70,0.00,,,0.00,meteohub,2013-03-05 21:20:00,
2013-03-05 16:25:00,33.1,24.4,29.88,East,79,7.0,15.0,70,0.00,,,0.00,meteohub,2013-03-05 21:25:00,
2013-03-05 16:30:00,33.3,24.6,29.89,East,93,6.0,15.0,70,0.00,,,0.00,meteohub,2013-03-05 21:30:00,
2013-03-05 16:35:00,33.4,25.0,29.88,East,88,4.0,15.0,71,0.00,,,0.00,meteohub,2013-03-05 21:35:00,
2013-03-05 16:40:00,33.4,24.8,29.88,NE,50,6.0,15.0,70,0.00,,,0.00,meteohub,2013-03-05 21:40:00,
2013-03-05 16:45:00,33.6,24.8,29.89,ENE,65,6.0,13.0,70,0.00,,,0.00,meteohub,2013-03-05 21:45:00,
2013-03-05 16:50:00,33.6,25.2,29.88,NE,54,5.0,13.0,71,0.00,,,0.00,meteohub,2013-03-05 21:50:00,
2013-03-05 16:55:00,33.6,25.2,29.88,NE,39,4.0,17.0,71,0.00,,,0.00,meteohub,2013-03-05 21:55:00,
2013-03-05 17:00:00,33.6,25.5,29.88,ENE,68,5.0,17.0,72,0.00,,,0.00,meteohub,2013-03-05 22:00:00,
2013-03-05 17:05:00,33.4,25.3,29.88,NE,55,5.0,17.0,72,0.00,,,0.00,meteohub,2013-03-05 22:05:00,
2013-03-05 17:10:00,33.4,25.3,29.88,NNE,24,6.0,14.0,72,0.00,,,0.00,meteohub,2013-03-05 22:10:00,
2013-03-05 17:15:00,33.3,25.5,29.88,NE,34,10.0,16.0,73,0.00,,,0.00,meteohub,2013-03-05 22:15:00,
2013-03-05 17:21:00,32.9,25.2,29.88,NNE,28,8.0,16.0,73,0.00,,,0.00,meteohub,2013-03-05 22:21:00,
2013-03-05 17:26:00,32.7,25.0,29.88,NNE,32,7.0,18.0,73,0.00,,,0.00,meteohub,2013-03-05 22:26:00,
2013-03-05 17:31:00,32.5,25.5,29.88,NE,51,7.0,18.0,75,0.00,,,0.00,meteohub,2013-03-05 22:31:00,
2013-03-05 17:36:00,32.5,25.5,29.89,NE,45,6.0,18.0,75,0.00,,,0.00,meteohub,2013-03-05 22:36:00,
2013-03-05 17:41:00,32.4,25.3,29.89,NE,43,9.0,16.0,75,0.00,,,0.00,meteohub,2013-03-05 22:41:00,
2013-03-05 17:46:00,32.2,25.5,29.89,ENE,60,11.0,16.0,76,0.00,,,0.00,meteohub,2013-03-05 22:46:00,
2013-03-05 17:51:00,32.2,25.2,29.90,ENE,65,10.0,18.0,75,0.00,,,0.00,meteohub,2013-03-05 22:51:00,
2013-03-05 17:56:00,32.0,25.0,29.90,East,80,11.0,18.0,75,0.00,,,0.00,meteohub,2013-03-05 22:56:00,
2013-03-05 18:01:00,32.0,25.3,29.90,ENE,72,5.0,18.0,76,0.00,,,0.00,meteohub,2013-03-05 23:01:00,
2013-03-05 18:06:00,31.8,25.2,29.91,NE,56,8.0,17.0,76,0.00,,,0.00,meteohub,2013-03-05 23:06:00,
2013-03-05 18:11:00,31.6,25.3,29.91,ENE,57,12.0,16.0,77,0.00,,,0.00,meteohub,2013-03-05 23:11:00,
2013-03-05 18:16:00,31.6,25.0,29.91,ENE,60,10.0,15.0,76,0.00,,,0.00,meteohub,2013-03-05 23:16:00,
2013-03-05 18:21:00,31.5,25.2,29.91,NE,39,6.0,23.0,77,0.00,,,0.00,meteohub,2013-03-05 23:21:00,
2013-03-05 18:26:00,31.3,25.0,29.91,NE,41,5.0,23.0,77,0.00,,,0.00,meteohub,2013-03-05 23:26:00,
2013-03-05 18:31:00,31.3,25.2,29.92,NE,43,7.0,23.0,78,0.00,,,0.00,meteohub,2013-03-05 23:31:00,
2013-03-05 18:36:00,31.3,25.2,29.92,ENE,59,9.0,19.0,78,0.00,,,0.00,meteohub,2013-03-05 23:36:00,
2013-03-05 18:41:00,31.1,25.0,29.93,East,81,9.0,19.0,78,0.00,,,0.00,meteohub,2013-03-05 23:41:00,
2013-03-05 18:46:00,31.1,25.0,29.93,ENE,57,6.0,16.0,78,0.00,,,0.00,meteohub,2013-03-05 23:46:00,
2013-03-05 18:51:00,30.9,24.8,29.93,NE,53,14.0,16.0,78,0.00,,,0.00,meteohub,2013-03-05 23:51:00,
2013-03-05 18:57:00,30.9,25.2,29.93,NE,39,9.0,16.0,79,0.00,,,0.00,meteohub,2013-03-05 23:57:00,
2013-03-05 19:02:00,30.9,25.2,29.92,NNE,20,11.0,16.0,79,0.00,,,0.00,meteohub,2013-03-06 00:02:00,
2013-03-05 19:07:00,30.7,25.0,29.92,NE,53,18.0,18.0,79,0.00,,,0.00,meteohub,2013-03-06 00:07:00,
2013-03-05 19:12:00,30.6,24.8,29.93,NE,47,6.0,18.0,79,0.00,,,0.00,meteohub,2013-03-06 00:12:00,
2013-03-05 19:17:00,30.6,25.2,29.93,ENE,57,8.0,18.0,80,0.00,,,0.00,meteohub,2013-03-06 00:17:00,
2013-03-05 19:22:00,30.4,25.0,29.94,NE,54,5.0,18.0,80,0.00,,,0.00,meteohub,2013-03-06 00:22:00,
2013-03-05 19:27:00,30.4,25.0,29.94,NE,39,10.0,18.0,80,0.00,,,0.00,meteohub,2013-03-06 00:27:00,
2013-03-05 19:32:00,30.2,25.2,29.94,NE,54,8.0,18.0,81,0.00,,,0.00,meteohub,2013-03-06 00:32:00,
2013-03-05 19:37:00,30.0,25.0,29.94,NE,51,9.0,15.0,81,0.00,,,0.00,meteohub,2013-03-06 00:37:00,
2013-03-05 19:42:00,30.0,25.0,29.93,ENE,66,8.0,19.0,81,0.00,,,0.00,meteohub,2013-03-06 00:42:00,
2013-03-05 19:47:00,30.0,25.0,29.93,ENE,62,17.0,19.0,81,0.00,,,0.00,meteohub,2013-03-06 00:47:00,
2013-03-05 19:52:00,29.8,24.8,29.93,ENE,57,4.0,19.0,81,0.00,,,0.00,meteohub,2013-03-06 00:52:00,
2013-03-05 19:57:00,29.7,24.8,29.93,NE,51,4.0,19.0,82,0.00,,,0.00,meteohub,2013-03-06 00:57:00,
2013-03-05 20:02:00,29.5,24.6,29.93,NNE,26,7.0,20.0,82,0.00,,,0.00,meteohub,2013-03-06 01:02:00,
2013-03-05 20:07:00,29.3,24.4,29.94,ENE,62,7.0,20.0,82,0.00,,,0.00,meteohub,2013-03-06 01:07:00,
2013-03-05 20:12:00,29.1,24.6,29.94,NE,37,5.0,18.0,83,0.00,,,0.00,meteohub,2013-03-06 01:12:00,
2013-03-05 20:17:00,28.9,24.4,29.94,North,354,7.0,18.0,83,0.00,,,0.00,meteohub,2013-03-06 01:17:00,
2013-03-05 20:22:00,28.8,24.3,29.94,NE,56,6.0,18.0,83,0.00,,,0.00,meteohub,2013-03-06 01:22:00,
2013-03-05 20:27:00,28.8,24.3,29.94,NE,39,6.0,17.0,83,0.00,,,0.00,meteohub,2013-03-06 01:27:00,
2013-03-05 20:32:00,28.6,24.4,29.94,ENE,63,6.0,18.0,84,0.00,,,0.00,meteohub,2013-03-06 01:32:00,
2013-03-05 20:37:00,28.2,24.1,29.94,ENE,68,8.0,18.0,84,0.00,,,0.00,meteohub,2013-03-06 01:37:00,
2013-03-05 20:42:00,28.2,24.1,29.93,ENE,60,16.0,19.0,84,0.00,,,0.00,meteohub,2013-03-06 01:42:00,
2013-03-05 20:47:00,28.0,23.9,29.94,NE,51,9.0,24.0,84,0.00,,,0.00,meteohub,2013-03-06 01:47:00,
2013-03-05 20:52:00,28.0,23.9,29.94,NE,37,7.0,24.0,84,0.00,,,0.00,meteohub,2013-03-06 01:52:00,
2013-03-05 20:57:00,28.0,23.9,29.94,ENE,63,11.0,24.0,84,0.00,,,0.00,meteohub,2013-03-06 01:57:00,
2013-03-05 21:02:00,28.0,23.9,29.94,East,96,5.0,19.0,84,0.00,,,0.00,meteohub,2013-03-06 02:02:00,
2013-03-05 21:07:00,27.9,23.7,29.94,NE,41,14.0,22.0,84,0.00,,,0.00,meteohub,2013-03-06 02:07:00,
2013-03-05 21:12:00,27.9,23.9,29.94,NE,50,6.0,22.0,85,0.00,,,0.00,meteohub,2013-03-06 02:12:00,
2013-03-05 21:18:00,27.9,23.9,29.94,NE,46,12.0,22.0,85,0.00,,,0.00,meteohub,2013-03-06 02:18:00,
2013-03-05 21:23:00,27.9,23.9,29.94,ENE,60,7.0,20.0,85,0.00,,,0.00,meteohub,2013-03-06 02:23:00,
2013-03-05 21:28:00,27.9,23.9,29.94,NNE,15,6.0,15.0,85,0.00,,,0.00,meteohub,2013-03-06 02:28:00,
2013-03-05 21:33:00,27.9,23.9,29.94,North,5,15.0,21.0,85,0.00,,,0.00,meteohub,2013-03-06 02:33:00,
2013-03-05 21:38:00,27.7,24.1,29.94,NE,54,13.0,21.0,86,0.00,,,0.00,meteohub,2013-03-06 02:38:00,
2013-03-05 21:43:00,27.7,24.1,29.95,NE,37,4.0,24.0,86,0.00,,,0.00,meteohub,2013-03-06 02:43:00,
2013-03-05 21:48:00,27.7,24.3,29.95,ENE,62,5.0,24.0,87,0.00,,,0.00,meteohub,2013-03-06 02:48:00,
2013-03-05 21:53:00,27.7,24.3,29.95,ENE,65,11.0,18.0,87,0.00,,,0.00,meteohub,2013-03-06 02:53:00,
2013-03-05 21:58:00,27.7,24.3,29.95,ENE,76,18.0,18.0,87,0.00,,,0.00,meteohub,2013-03-06 02:58:00,
2013-03-05 22:03:00,27.7,24.3,29.96,NE,42,17.0,21.0,87,0.00,,,0.00,meteohub,2013-03-06 03:03:00,
2013-03-05 22:08:00,27.5,24.4,29.96,NE,42,6.0,21.0,88,0.00,,,0.00,meteohub,2013-03-06 03:08:00,
2013-03-05 22:13:00,27.5,24.4,29.96,ENE,74,10.0,21.0,88,0.00,,,0.00,meteohub,2013-03-06 03:13:00,
2013-03-05 22:18:00,27.5,24.1,29.96,NE,56,6.0,21.0,87,0.00,,,0.00,meteohub,2013-03-06 03:18:00,
2013-03-05 22:23:00,27.5,24.1,29.96,North,4,7.0,16.0,87,0.00,,,0.00,meteohub,2013-03-06 03:23:00,
2013-03-05 22:28:00,27.3,24.3,29.96,ENE,65,7.0,17.0,88,0.00,,,0.00,meteohub,2013-03-06 03:28:00,
2013-03-05 22:33:00,27.3,24.3,29.96,ENE,68,5.0,17.0,88,0.00,,,0.00,meteohub,2013-03-06 03:33:00,
2013-03-05 22:38:00,27.3,24.3,29.96,NE,34,8.0,25.0,88,0.00,,,0.00,meteohub,2013-03-06 03:38:00,
2013-03-05 22:43:00,27.3,24.3,29.97,ENE,63,8.0,25.0,88,0.00,,,0.00,meteohub,2013-03-06 03:43:00,
2013-03-05 22:48:00,27.3,24.3,29.97,ENE,57,9.0,25.0,88,0.00,,,0.00,meteohub,2013-03-06 03:48:00,
2013-03-05 22:54:00,27.3,24.3,29.97,ENE,65,9.0,21.0,88,0.00,,,0.00,meteohub,2013-03-06 03:54:00,
2013-03-05 22:59:00,27.3,24.3,29.97,NE,46,10.0,21.0,88,0.00,,,0.00,meteohub,2013-03-06 03:59:00,
2013-03-05 23:04:00,27.3,24.3,29.97,NE,54,10.0,21.0,88,0.00,,,0.00,meteohub,2013-03-06 04:04:00,
2013-03-05 23:09:00,27.3,24.3,29.97,East,79,7.0,20.0,88,0.00,,,0.00,meteohub,2013-03-06 04:09:00,
2013-03-05 23:14:00,27.3,24.3,29.97,East,81,17.0,22.0,88,0.00,,,0.00,meteohub,2013-03-06 04:14:00,
2013-03-05 23:19:00,27.1,24.1,29.98,NNE,18,5.0,24.0,88,0.00,,,0.00,meteohub,2013-03-06 04:19:00,
2013-03-05 23:24:00,27.1,24.1,29.98,NE,47,5.0,24.0,88,0.00,,,0.00,meteohub,2013-03-06 04:24:00,
2013-03-05 23:29:00,27.1,24.1,29.98,ENE,60,6.0,24.0,88,0.00,,,0.00,meteohub,2013-03-06 04:29:00,
2013-03-05 23:34:00,27.1,24.1,29.98,ENE,70,15.0,19.0,88,0.00,,,0.00,meteohub,2013-03-06 04:34:00,
2013-03-05 23:39:00,27.1,24.3,29.98,NE,37,17.0,17.0,89,0.00,,,0.00,meteohub,2013-03-06 04:39:00,
2013-03-05 23:44:00,27.1,24.3,29.98,NE,51,10.0,22.0,89,0.00,,,0.00,meteohub,2013-03-06 04:44:00,
2013-03-05 23:49:00,27.1,24.3,29.98,NE,40,10.0,22.0,89,0.00,,,0.00,meteohub,2013-03-06 04:49:00,
2013-03-05 23:54:00,27.1,24.3,29.98,NE,49,9.0,22.0,89,0.00,,,0.00,meteohub,2013-03-06 04:54:00,
2013-03-05 23:59:00,27.1,24.3,29.98,ENE,59,8.0,16.0,89,0.00,,,0.00,meteohub,2013-03-06 04:59:00,